owner,sensor,date,latitude,longitude,vertical_datum,sea_water_temperature,qcFlag 
SCCF RECON,ioos:station:SCCF:11:1,2017-11-01T04:00:00Z,26.4679,-82.0631,1.74,20.82,2 
SCCF RECON,ioos:station:SCCF:11:1,2017-11-01T05:00:00Z,26.4679,-82.0631,1.74,20.95,2 
SCCF RECON,ioos:station:SCCF:11:1,2017-11-01T06:00:00Z,26.4679,-82.0631,1.74,20.8,2 
SCCF RECON,ioos:station:SCCF:11:1,2017-11-01T07:00:00Z,26.4679,-82.0631,1.74,20.71,2 
SCCF RECON,ioos:station:SCCF:11:1,2017-11-01T08:00:00Z,26.4679,-82.0631,1.74,20.56,2 
SCCF RECON,ioos:station:SCCF:11:1,2017-11-01T09:00:00Z,26.4679,-82.0631,1.74,20.48,2 
SCCF RECON,ioos:station:SCCF:11:1,2017-11-01T10:00:00Z,26.4679,-82.0631,1.74,20.27,2 
SCCF RECON,ioos:station:SCCF:11:1,2017-11-01T11:00:00Z,26.4679,-82.0631,1.74,20.35,2 
SCCF RECON,ioos:station:SCCF:11:1,2017-11-01T12:00:00Z,26.4679,-82.0631,1.74,20.31,2 
SCCF RECON,ioos:station:SCCF:11:1,2017-11-01T13:00:00Z,26.4679,-82.0631,1.74,20.31,2 
SCCF RECON,ioos:station:SCCF:11:1,2017-11-01T14:00:00Z,26.4679,-82.0631,1.74,20.48,2 
SCCF RECON,ioos:station:SCCF:11:1,2017-11-01T15:00:00Z,26.4679,-82.0631,1.74,20.55,2 
SCCF RECON,ioos:station:SCCF:11:1,2017-11-01T16:00:00Z,26.4679,-82.0631,1.74,20.82,2 
SCCF RECON,ioos:station:SCCF:11:1,2017-11-01T17:00:00Z,26.4679,-82.0631,1.74,20.89,2 
SCCF RECON,ioos:station:SCCF:11:1,2017-11-01T18:00:00Z,26.4679,-82.0631,1.74,21.29,2 
SCCF RECON,ioos:station:SCCF:11:1,2017-11-01T19:00:00Z,26.4679,-82.0631,1.74,21.86,2 
SCCF RECON,ioos:station:SCCF:11:1,2017-11-01T20:00:00Z,26.4679,-82.0631,1.74,21.9,2 
SCCF RECON,ioos:station:SCCF:11:1,2017-11-01T21:00:00Z,26.4679,-82.0631,1.74,21.4,2 
SCCF RECON,ioos:station:SCCF:11:1,2017-11-01T22:00:00Z,26.4679,-82.0631,1.74,21.74,2 
SCCF RECON,ioos:station:SCCF:11:1,2017-11-02T04:00:00Z,26.4679,-82.0631,1.74,21.82,2 
SCCF RECON,ioos:station:SCCF:11:1,2017-11-02T05:00:00Z,26.4679,-82.0631,1.74,21.87,2 
SCCF RECON,ioos:station:SCCF:11:1,2017-11-02T06:00:00Z,26.4679,-82.0631,1.74,21.79,2 
SCCF RECON,ioos:station:SCCF:11:1,2017-11-02T07:00:00Z,26.4679,-82.0631,1.74,21.63,2 
SCCF RECON,ioos:station:SCCF:11:1,2017-11-02T08:00:00Z,26.4679,-82.0631,1.74,21.49,2 
SCCF RECON,ioos:station:SCCF:11:1,2017-11-02T09:00:00Z,26.4679,-82.0631,1.74,21.4,2 
SCCF RECON,ioos:station:SCCF:11:1,2017-11-02T10:00:00Z,26.4679,-82.0631,1.74,21.3,2 
SCCF RECON,ioos:station:SCCF:11:1,2017-11-02T11:00:00Z,26.4679,-82.0631,1.74,21.26,2 
SCCF RECON,ioos:station:SCCF:11:1,2017-11-02T12:00:00Z,26.4679,-82.0631,1.74,21.04,2 
SCCF RECON,ioos:station:SCCF:11:1,2017-11-02T13:00:00Z,26.4679,-82.0631,1.74,21.2,2 
SCCF RECON,ioos:station:SCCF:11:1,2017-11-02T14:00:00Z,26.4679,-82.0631,1.74,21.27,2 
SCCF RECON,ioos:station:SCCF:11:1,2017-11-02T15:00:00Z,26.4679,-82.0631,1.74,21.43,2 
SCCF RECON,ioos:station:SCCF:11:1,2017-11-02T16:00:00Z,26.4679,-82.0631,1.74,21.5,2 
SCCF RECON,ioos:station:SCCF:11:1,2017-11-02T17:00:00Z,26.4679,-82.0631,1.74,21.54,2 
SCCF RECON,ioos:station:SCCF:11:1,2017-11-02T18:00:00Z,26.4679,-82.0631,1.74,21.7,2 
SCCF RECON,ioos:station:SCCF:11:1,2017-11-02T19:00:00Z,26.4679,-82.0631,1.74,22.84,2 
SCCF RECON,ioos:station:SCCF:11:1,2017-11-02T20:00:00Z,26.4679,-82.0631,1.74,22.98,2 
SCCF RECON,ioos:station:SCCF:11:1,2017-11-02T21:00:00Z,26.4679,-82.0631,1.74,23.09,2 
SCCF RECON,ioos:station:SCCF:11:1,2017-11-02T22:00:00Z,26.4679,-82.0631,1.74,23.07,2 
SCCF RECON,ioos:station:SCCF:11:1,2017-11-03T04:00:00Z,26.4679,-82.0631,1.74,22.56,2 
SCCF RECON,ioos:station:SCCF:11:1,2017-11-03T05:00:00Z,26.4679,-82.0631,1.74,22.54,2 
SCCF RECON,ioos:station:SCCF:11:1,2017-11-03T06:00:00Z,26.4679,-82.0631,1.74,22.68,2 
SCCF RECON,ioos:station:SCCF:11:1,2017-11-03T07:00:00Z,26.4679,-82.0631,1.74,22.56,2 
SCCF RECON,ioos:station:SCCF:11:1,2017-11-03T08:00:00Z,26.4679,-82.0631,1.74,22.49,2 
SCCF RECON,ioos:station:SCCF:11:1,2017-11-03T09:00:00Z,26.4679,-82.0631,1.74,22.47,2 
SCCF RECON,ioos:station:SCCF:11:1,2017-11-03T10:00:00Z,26.4679,-82.0631,1.74,22.35,2 
SCCF RECON,ioos:station:SCCF:11:1,2017-11-03T11:00:00Z,26.4679,-82.0631,1.74,22.21,2 
SCCF RECON,ioos:station:SCCF:11:1,2017-11-03T12:00:00Z,26.4679,-82.0631,1.74,22.13,2 
SCCF RECON,ioos:station:SCCF:11:1,2017-11-03T13:00:00Z,26.4679,-82.0631,1.74,22.05,2 
SCCF RECON,ioos:station:SCCF:11:1,2017-11-03T14:00:00Z,26.4679,-82.0631,1.74,22.1,2 
SCCF RECON,ioos:station:SCCF:11:1,2017-11-03T15:00:00Z,26.4679,-82.0631,1.74,22.24,2 
SCCF RECON,ioos:station:SCCF:11:1,2017-11-03T16:00:00Z,26.4679,-82.0631,1.74,22.2,2 
SCCF RECON,ioos:station:SCCF:11:1,2017-11-03T17:00:00Z,26.4679,-82.0631,1.74,22.41,2 
SCCF RECON,ioos:station:SCCF:11:1,2017-11-03T18:00:00Z,26.4679,-82.0631,1.74,22.62,2 
SCCF RECON,ioos:station:SCCF:11:1,2017-11-03T19:00:00Z,26.4679,-82.0631,1.74,22.68,2 
SCCF RECON,ioos:station:SCCF:11:1,2017-11-03T20:00:00Z,26.4679,-82.0631,1.74,22.99,2 
SCCF RECON,ioos:station:SCCF:11:1,2017-11-03T21:00:00Z,26.4679,-82.0631,1.74,23.28,2 
SCCF RECON,ioos:station:SCCF:11:1,2017-11-03T22:00:00Z,26.4679,-82.0631,1.74,23.02,2 
SCCF RECON,ioos:station:SCCF:11:1,2017-11-04T04:00:00Z,26.4679,-82.0631,1.74,23.12,2 
SCCF RECON,ioos:station:SCCF:11:1,2017-11-04T05:00:00Z,26.4679,-82.0631,1.74,23.1,2 
SCCF RECON,ioos:station:SCCF:11:1,2017-11-04T06:00:00Z,26.4679,-82.0631,1.74,23.11,2 
SCCF RECON,ioos:station:SCCF:11:1,2017-11-04T07:00:00Z,26.4679,-82.0631,1.74,22.77,2 
SCCF RECON,ioos:station:SCCF:11:1,2017-11-04T08:00:00Z,26.4679,-82.0631,1.74,22.74,2 
SCCF RECON,ioos:station:SCCF:11:1,2017-11-04T09:00:00Z,26.4679,-82.0631,1.74,22.72,2 
SCCF RECON,ioos:station:SCCF:11:1,2017-11-04T10:00:00Z,26.4679,-82.0631,1.74,22.67,2 
SCCF RECON,ioos:station:SCCF:11:1,2017-11-04T11:00:00Z,26.4679,-82.0631,1.74,22.6,2 
SCCF RECON,ioos:station:SCCF:11:1,2017-11-04T12:00:00Z,26.4679,-82.0631,1.74,22.5,2 
SCCF RECON,ioos:station:SCCF:11:1,2017-11-04T13:00:00Z,26.4679,-82.0631,1.74,22.42,2 
SCCF RECON,ioos:station:SCCF:11:1,2017-11-04T14:00:00Z,26.4679,-82.0631,1.74,22.52,2 
SCCF RECON,ioos:station:SCCF:11:1,2017-11-04T15:00:00Z,26.4679,-82.0631,1.74,22.73,2 
SCCF RECON,ioos:station:SCCF:11:1,2017-11-04T16:00:00Z,26.4679,-82.0631,1.74,22.8,2 
SCCF RECON,ioos:station:SCCF:11:1,2017-11-04T17:00:00Z,26.4679,-82.0631,1.74,22.83,2 
SCCF RECON,ioos:station:SCCF:11:1,2017-11-04T18:00:00Z,26.4679,-82.0631,1.74,22.97,2 
SCCF RECON,ioos:station:SCCF:11:1,2017-11-04T19:00:00Z,26.4679,-82.0631,1.74,23.32,2 
SCCF RECON,ioos:station:SCCF:11:1,2017-11-04T20:00:00Z,26.4679,-82.0631,1.74,23.56,2 
SCCF RECON,ioos:station:SCCF:11:1,2017-11-04T21:00:00Z,26.4679,-82.0631,1.74,23.99,2 
SCCF RECON,ioos:station:SCCF:11:1,2017-11-04T22:00:00Z,26.4679,-82.0631,1.74,24.24,2 
SCCF RECON,ioos:station:SCCF:11:1,2017-11-05T04:00:00Z,26.4679,-82.0631,1.74,23.68,2 
SCCF RECON,ioos:station:SCCF:11:1,2017-11-05T05:00:00Z,26.4679,-82.0631,1.74,23.67,2 
SCCF RECON,ioos:station:SCCF:11:1,2017-11-05T06:00:00Z,26.4679,-82.0631,1.74,23.64,2 
SCCF RECON,ioos:station:SCCF:11:1,2017-11-05T07:00:00Z,26.4679,-82.0631,1.74,23.64,2 
SCCF RECON,ioos:station:SCCF:11:1,2017-11-05T08:00:00Z,26.4679,-82.0631,1.74,23.33,2 
SCCF RECON,ioos:station:SCCF:11:1,2017-11-05T09:00:00Z,26.4679,-82.0631,1.74,23.37,2 
SCCF RECON,ioos:station:SCCF:11:1,2017-11-05T10:00:00Z,26.4679,-82.0631,1.74,23.31,2 
SCCF RECON,ioos:station:SCCF:11:1,2017-11-05T11:00:00Z,26.4679,-82.0631,1.74,23.24,2 
SCCF RECON,ioos:station:SCCF:11:1,2017-11-05T12:00:00Z,26.4679,-82.0631,1.74,23.15,2 
SCCF RECON,ioos:station:SCCF:11:1,2017-11-05T13:00:00Z,26.4679,-82.0631,1.74,23.06,2 
SCCF RECON,ioos:station:SCCF:11:1,2017-11-05T14:00:00Z,26.4679,-82.0631,1.74,23.09,2 
SCCF RECON,ioos:station:SCCF:11:1,2017-11-05T15:00:00Z,26.4679,-82.0631,1.74,23.2,2 
SCCF RECON,ioos:station:SCCF:11:1,2017-11-05T16:00:00Z,26.4679,-82.0631,1.74,23.58,2 
SCCF RECON,ioos:station:SCCF:11:1,2017-11-05T17:00:00Z,26.4679,-82.0631,1.74,23.58,2 
SCCF RECON,ioos:station:SCCF:11:1,2017-11-05T18:00:00Z,26.4679,-82.0631,1.74,23.48,2 
SCCF RECON,ioos:station:SCCF:11:1,2017-11-05T19:00:00Z,26.4679,-82.0631,1.74,23.75,2 
SCCF RECON,ioos:station:SCCF:11:1,2017-11-05T20:00:00Z,26.4679,-82.0631,1.74,23.81,2 
SCCF RECON,ioos:station:SCCF:11:1,2017-11-05T21:00:00Z,26.4679,-82.0631,1.74,24.76,2 
SCCF RECON,ioos:station:SCCF:11:1,2017-11-05T22:00:00Z,26.4679,-82.0631,1.74,24.73,2 
SCCF RECON,ioos:station:SCCF:11:1,2017-11-06T05:00:00Z,26.4679,-82.0631,1.74,24.02,2 
SCCF RECON,ioos:station:SCCF:11:1,2017-11-06T06:00:00Z,26.4679,-82.0631,1.74,24.02,2 
SCCF RECON,ioos:station:SCCF:11:1,2017-11-06T07:00:00Z,26.4679,-82.0631,1.74,23.96,2 
SCCF RECON,ioos:station:SCCF:11:1,2017-11-06T08:00:00Z,26.4679,-82.0631,1.74,23.95,2 
SCCF RECON,ioos:station:SCCF:11:1,2017-11-06T09:00:00Z,26.4679,-82.0631,1.74,23.96,2 
SCCF RECON,ioos:station:SCCF:11:1,2017-11-06T10:00:00Z,26.4679,-82.0631,1.74,23.98,2 
SCCF RECON,ioos:station:SCCF:11:1,2017-11-06T11:00:00Z,26.4679,-82.0631,1.74,23.93,2 
SCCF RECON,ioos:station:SCCF:11:1,2017-11-06T12:00:00Z,26.4679,-82.0631,1.74,23.86,2 
SCCF RECON,ioos:station:SCCF:11:1,2017-11-06T13:00:00Z,26.4679,-82.0631,1.74,23.83,2 
SCCF RECON,ioos:station:SCCF:11:1,2017-11-06T14:00:00Z,26.4679,-82.0631,1.74,23.94,2 
SCCF RECON,ioos:station:SCCF:11:1,2017-11-06T15:00:00Z,26.4679,-82.0631,1.74,23.93,2 
SCCF RECON,ioos:station:SCCF:11:1,2017-11-06T16:00:00Z,26.4679,-82.0631,1.74,24.05,2 
SCCF RECON,ioos:station:SCCF:11:1,2017-11-06T17:00:00Z,26.4679,-82.0631,1.74,24.4,2 
SCCF RECON,ioos:station:SCCF:11:1,2017-11-06T18:00:00Z,26.4679,-82.0631,1.74,24.5,2 
SCCF RECON,ioos:station:SCCF:11:1,2017-11-06T19:00:00Z,26.4679,-82.0631,1.74,24.31,2 
SCCF RECON,ioos:station:SCCF:11:1,2017-11-06T20:00:00Z,26.4679,-82.0631,1.74,24.32,2 
SCCF RECON,ioos:station:SCCF:11:1,2017-11-06T21:00:00Z,26.4679,-82.0631,1.74,24.47,2 
SCCF RECON,ioos:station:SCCF:11:1,2017-11-06T22:00:00Z,26.4679,-82.0631,1.74,25.43,2 
SCCF RECON,ioos:station:SCCF:11:1,2017-11-07T05:00:00Z,26.4679,-82.0631,1.74,24.77,2 
SCCF RECON,ioos:station:SCCF:11:1,2017-11-07T06:00:00Z,26.4679,-82.0631,1.74,24.71,2 
SCCF RECON,ioos:station:SCCF:11:1,2017-11-07T07:00:00Z,26.4679,-82.0631,1.74,24.69,2 
SCCF RECON,ioos:station:SCCF:11:1,2017-11-07T08:00:00Z,26.4679,-82.0631,1.74,24.71,2 
SCCF RECON,ioos:station:SCCF:11:1,2017-11-07T09:00:00Z,26.4679,-82.0631,1.74,24.59,2 
SCCF RECON,ioos:station:SCCF:11:1,2017-11-07T10:00:00Z,26.4679,-82.0631,1.74,24.7,2 
SCCF RECON,ioos:station:SCCF:11:1,2017-11-07T11:00:00Z,26.4679,-82.0631,1.74,24.65,2 
SCCF RECON,ioos:station:SCCF:11:1,2017-11-07T12:00:00Z,26.4679,-82.0631,1.74,24.6,2 
SCCF RECON,ioos:station:SCCF:11:1,2017-11-07T13:00:00Z,26.4679,-82.0631,1.74,24.6,2 
SCCF RECON,ioos:station:SCCF:11:1,2017-11-07T14:00:00Z,26.4679,-82.0631,1.74,24.69,2 
SCCF RECON,ioos:station:SCCF:11:1,2017-11-07T17:00:00Z,26.4679,-82.0631,1.74,25.11,2 
SCCF RECON,ioos:station:SCCF:11:1,2017-11-07T19:00:00Z,26.4679,-82.0631,1.74,25.23,2 
SCCF RECON,ioos:station:SCCF:11:1,2017-11-07T20:00:00Z,26.4679,-82.0631,1.74,25.0,2 
SCCF RECON,ioos:station:SCCF:11:1,2017-11-07T22:00:00Z,26.4679,-82.0631,1.74,25.58,2 
SCCF RECON,ioos:station:SCCF:11:1,2017-11-07T23:00:00Z,26.4679,-82.0631,1.74,25.92,2 
SCCF RECON,ioos:station:SCCF:11:1,2017-11-08T06:00:00Z,26.4679,-82.0631,1.74,25.06,2 
SCCF RECON,ioos:station:SCCF:11:1,2017-11-08T07:00:00Z,26.4679,-82.0631,1.74,25.02,2 
SCCF RECON,ioos:station:SCCF:11:1,2017-11-08T08:00:00Z,26.4679,-82.0631,1.74,25.08,2 
SCCF RECON,ioos:station:SCCF:11:1,2017-11-08T09:00:00Z,26.4679,-82.0631,1.74,24.69,2 
SCCF RECON,ioos:station:SCCF:11:1,2017-11-08T10:00:00Z,26.4679,-82.0631,1.74,24.83,2 
SCCF RECON,ioos:station:SCCF:11:1,2017-11-08T11:00:00Z,26.4679,-82.0631,1.74,24.88,2 
SCCF RECON,ioos:station:SCCF:11:1,2017-11-08T12:00:00Z,26.4679,-82.0631,1.74,24.89,2 
SCCF RECON,ioos:station:SCCF:11:1,2017-11-08T13:00:00Z,26.4679,-82.0631,1.74,24.85,2 
SCCF RECON,ioos:station:SCCF:11:1,2017-11-08T14:00:00Z,26.4679,-82.0631,1.74,24.86,2 
SCCF RECON,ioos:station:SCCF:11:1,2017-11-08T15:00:00Z,26.4679,-82.0631,1.74,25.0,2 
SCCF RECON,ioos:station:SCCF:11:1,2017-11-08T16:00:00Z,26.4679,-82.0631,1.74,25.29,2 
SCCF RECON,ioos:station:SCCF:11:1,2017-11-08T17:00:00Z,26.4679,-82.0631,1.74,25.3,2 
SCCF RECON,ioos:station:SCCF:11:1,2017-11-08T18:00:00Z,26.4679,-82.0631,1.74,25.66,2 
SCCF RECON,ioos:station:SCCF:11:1,2017-11-08T19:00:00Z,26.4679,-82.0631,1.74,25.91,2 
SCCF RECON,ioos:station:SCCF:11:1,2017-11-08T20:00:00Z,26.4679,-82.0631,1.74,26.01,2 
SCCF RECON,ioos:station:SCCF:11:1,2017-11-08T21:00:00Z,26.4679,-82.0631,1.74,25.49,2 
SCCF RECON,ioos:station:SCCF:11:1,2017-11-08T22:00:00Z,26.4679,-82.0631,1.74,25.23,2 
SCCF RECON,ioos:station:SCCF:11:1,2017-11-09T05:00:00Z,26.4679,-82.0631,1.74,25.61,2 
SCCF RECON,ioos:station:SCCF:11:1,2017-11-09T06:00:00Z,26.4679,-82.0631,1.74,25.53,2 
SCCF RECON,ioos:station:SCCF:11:1,2017-11-09T07:00:00Z,26.4679,-82.0631,1.74,25.43,2 
SCCF RECON,ioos:station:SCCF:11:1,2017-11-09T08:00:00Z,26.4679,-82.0631,1.74,25.37,2 
SCCF RECON,ioos:station:SCCF:11:1,2017-11-09T09:00:00Z,26.4679,-82.0631,1.74,25.31,2 
SCCF RECON,ioos:station:SCCF:11:1,2017-11-09T10:00:00Z,26.4679,-82.0631,1.74,25.29,2 
SCCF RECON,ioos:station:SCCF:11:1,2017-11-09T11:00:00Z,26.4679,-82.0631,1.74,25.35,2 
SCCF RECON,ioos:station:SCCF:11:1,2017-11-09T12:00:00Z,26.4679,-82.0631,1.74,25.16,2 
SCCF RECON,ioos:station:SCCF:11:1,2017-11-09T13:00:00Z,26.4679,-82.0631,1.74,25.31,2 
SCCF RECON,ioos:station:SCCF:11:1,2017-11-09T14:00:00Z,26.4679,-82.0631,1.74,25.41,2 
SCCF RECON,ioos:station:SCCF:11:1,2017-11-09T15:00:00Z,26.4679,-82.0631,1.74,25.63,2 
SCCF RECON,ioos:station:SCCF:11:1,2017-11-09T16:00:00Z,26.4679,-82.0631,1.74,25.96,2 
SCCF RECON,ioos:station:SCCF:11:1,2017-11-09T17:00:00Z,26.4679,-82.0631,1.74,26.49,2 
SCCF RECON,ioos:station:SCCF:11:1,2017-11-09T18:00:00Z,26.4679,-82.0631,1.74,26.02,2 
SCCF RECON,ioos:station:SCCF:11:1,2017-11-09T19:00:00Z,26.4679,-82.0631,1.74,26.42,2 
SCCF RECON,ioos:station:SCCF:11:1,2017-11-09T20:00:00Z,26.4679,-82.0631,1.74,26.47,2 
SCCF RECON,ioos:station:SCCF:11:1,2017-11-09T21:00:00Z,26.4679,-82.0631,1.74,26.14,2 
SCCF RECON,ioos:station:SCCF:11:1,2017-11-09T22:00:00Z,26.4679,-82.0631,1.74,26.01,2 
SCCF RECON,ioos:station:SCCF:11:1,2017-11-10T05:00:00Z,26.4679,-82.0631,1.74,26.01,2 
SCCF RECON,ioos:station:SCCF:11:1,2017-11-10T06:00:00Z,26.4679,-82.0631,1.74,26.1,2 
SCCF RECON,ioos:station:SCCF:11:1,2017-11-10T07:00:00Z,26.4679,-82.0631,1.74,25.96,2 
SCCF RECON,ioos:station:SCCF:11:1,2017-11-10T08:00:00Z,26.4679,-82.0631,1.74,25.82,2 
SCCF RECON,ioos:station:SCCF:11:1,2017-11-10T09:00:00Z,26.4679,-82.0631,1.74,25.61,2 
SCCF RECON,ioos:station:SCCF:11:1,2017-11-10T10:00:00Z,26.4679,-82.0631,1.74,25.58,2 
SCCF RECON,ioos:station:SCCF:11:1,2017-11-10T11:00:00Z,26.4679,-82.0631,1.74,25.48,2 
SCCF RECON,ioos:station:SCCF:11:1,2017-11-10T12:00:00Z,26.4679,-82.0631,1.74,25.6,2 
SCCF RECON,ioos:station:SCCF:11:1,2017-11-10T13:00:00Z,26.4679,-82.0631,1.74,25.47,2 
SCCF RECON,ioos:station:SCCF:11:1,2017-11-10T14:00:00Z,26.4679,-82.0631,1.74,25.51,2 
SCCF RECON,ioos:station:SCCF:11:1,2017-11-10T15:00:00Z,26.4679,-82.0631,1.74,25.68,2 
SCCF RECON,ioos:station:SCCF:11:1,2017-11-10T16:00:00Z,26.4679,-82.0631,1.74,25.9,2 
SCCF RECON,ioos:station:SCCF:11:1,2017-11-10T17:00:00Z,26.4679,-82.0631,1.74,26.15,2 
SCCF RECON,ioos:station:SCCF:11:1,2017-11-10T18:00:00Z,26.4679,-82.0631,1.74,26.22,2 
SCCF RECON,ioos:station:SCCF:11:1,2017-11-10T19:00:00Z,26.4679,-82.0631,1.74,26.29,2 
SCCF RECON,ioos:station:SCCF:11:1,2017-11-10T20:00:00Z,26.4679,-82.0631,1.74,26.16,2 
SCCF RECON,ioos:station:SCCF:11:1,2017-11-10T21:00:00Z,26.4679,-82.0631,1.74,26.79,2 
SCCF RECON,ioos:station:SCCF:11:1,2017-11-10T22:00:00Z,26.4679,-82.0631,1.74,26.51,2 
SCCF RECON,ioos:station:SCCF:11:1,2017-11-11T05:00:00Z,26.4679,-82.0631,1.74,25.6,2 
SCCF RECON,ioos:station:SCCF:11:1,2017-11-11T06:00:00Z,26.4679,-82.0631,1.74,25.39,2 
SCCF RECON,ioos:station:SCCF:11:1,2017-11-11T07:00:00Z,26.4679,-82.0631,1.74,24.78,2 
SCCF RECON,ioos:station:SCCF:11:1,2017-11-11T08:00:00Z,26.4679,-82.0631,1.74,24.94,2 
SCCF RECON,ioos:station:SCCF:11:1,2017-11-11T09:00:00Z,26.4679,-82.0631,1.74,24.87,2 
SCCF RECON,ioos:station:SCCF:11:1,2017-11-11T10:00:00Z,26.4679,-82.0631,1.74,24.64,2 
SCCF RECON,ioos:station:SCCF:11:1,2017-11-11T11:00:00Z,26.4679,-82.0631,1.74,24.34,2 
SCCF RECON,ioos:station:SCCF:11:1,2017-11-11T12:00:00Z,26.4679,-82.0631,1.74,24.4,2 
SCCF RECON,ioos:station:SCCF:11:1,2017-11-11T13:00:00Z,26.4679,-82.0631,1.74,24.1,2 
SCCF RECON,ioos:station:SCCF:11:1,2017-11-11T14:00:00Z,26.4679,-82.0631,1.74,24.32,2 
SCCF RECON,ioos:station:SCCF:11:1,2017-11-11T15:00:00Z,26.4679,-82.0631,1.74,24.35,2 
SCCF RECON,ioos:station:SCCF:11:1,2017-11-11T16:00:00Z,26.4679,-82.0631,1.74,24.76,2 
SCCF RECON,ioos:station:SCCF:11:1,2017-11-11T17:00:00Z,26.4679,-82.0631,1.74,25.06,2 
SCCF RECON,ioos:station:SCCF:11:1,2017-11-11T18:00:00Z,26.4679,-82.0631,1.74,25.34,2 
SCCF RECON,ioos:station:SCCF:11:1,2017-11-11T19:00:00Z,26.4679,-82.0631,1.74,25.6,2 
SCCF RECON,ioos:station:SCCF:11:1,2017-11-11T20:00:00Z,26.4679,-82.0631,1.74,25.38,2 
SCCF RECON,ioos:station:SCCF:11:1,2017-11-11T21:00:00Z,26.4679,-82.0631,1.74,25.56,2 
SCCF RECON,ioos:station:SCCF:11:1,2017-11-11T22:00:00Z,26.4679,-82.0631,1.74,25.47,2 
SCCF RECON,ioos:station:SCCF:11:1,2017-11-12T05:00:00Z,26.4679,-82.0631,1.74,24.93,2 
SCCF RECON,ioos:station:SCCF:11:1,2017-11-12T06:00:00Z,26.4679,-82.0631,1.74,24.98,2 
SCCF RECON,ioos:station:SCCF:11:1,2017-11-12T07:00:00Z,26.4679,-82.0631,1.74,24.91,2 
SCCF RECON,ioos:station:SCCF:11:1,2017-11-12T08:00:00Z,26.4679,-82.0631,1.74,24.82,2 
SCCF RECON,ioos:station:SCCF:11:1,2017-11-12T09:00:00Z,26.4679,-82.0631,1.74,24.52,2 
SCCF RECON,ioos:station:SCCF:11:1,2017-11-12T10:00:00Z,26.4679,-82.0631,1.74,24.59,2 
SCCF RECON,ioos:station:SCCF:11:1,2017-11-12T11:00:00Z,26.4679,-82.0631,1.74,24.58,2 
SCCF RECON,ioos:station:SCCF:11:1,2017-11-12T12:00:00Z,26.4679,-82.0631,1.74,24.25,2 
SCCF RECON,ioos:station:SCCF:11:1,2017-11-12T13:00:00Z,26.4679,-82.0631,1.74,24.17,2 
SCCF RECON,ioos:station:SCCF:11:1,2017-11-12T14:00:00Z,26.4679,-82.0631,1.74,24.17,2 
SCCF RECON,ioos:station:SCCF:11:1,2017-11-12T15:00:00Z,26.4679,-82.0631,1.74,24.17,2 
SCCF RECON,ioos:station:SCCF:11:1,2017-11-12T16:00:00Z,26.4679,-82.0631,1.74,24.35,2 
SCCF RECON,ioos:station:SCCF:11:1,2017-11-12T17:00:00Z,26.4679,-82.0631,1.74,24.99,2 
SCCF RECON,ioos:station:SCCF:11:1,2017-11-12T18:00:00Z,26.4679,-82.0631,1.74,25.2,2 
SCCF RECON,ioos:station:SCCF:11:1,2017-11-12T19:00:00Z,26.4679,-82.0631,1.74,25.34,2 
SCCF RECON,ioos:station:SCCF:11:1,2017-11-12T20:00:00Z,26.4679,-82.0631,1.74,25.59,2 
SCCF RECON,ioos:station:SCCF:11:1,2017-11-12T21:00:00Z,26.4679,-82.0631,1.74,25.29,2 
SCCF RECON,ioos:station:SCCF:11:1,2017-11-12T22:00:00Z,26.4679,-82.0631,1.74,25.35,2 
SCCF RECON,ioos:station:SCCF:11:1,2017-11-13T05:00:00Z,26.4679,-82.0631,1.74,25.01,2 
SCCF RECON,ioos:station:SCCF:11:1,2017-11-13T06:00:00Z,26.4679,-82.0631,1.74,24.92,2 
SCCF RECON,ioos:station:SCCF:11:1,2017-11-13T07:00:00Z,26.4679,-82.0631,1.74,24.82,2 
SCCF RECON,ioos:station:SCCF:11:1,2017-11-13T08:00:00Z,26.4679,-82.0631,1.74,24.71,2 
SCCF RECON,ioos:station:SCCF:11:1,2017-11-13T09:00:00Z,26.4679,-82.0631,1.74,24.71,2 
SCCF RECON,ioos:station:SCCF:11:1,2017-11-13T10:00:00Z,26.4679,-82.0631,1.74,24.58,2 
SCCF RECON,ioos:station:SCCF:11:1,2017-11-13T11:00:00Z,26.4679,-82.0631,1.74,24.35,2 
SCCF RECON,ioos:station:SCCF:11:1,2017-11-13T12:00:00Z,26.4679,-82.0631,1.74,24.32,2 
SCCF RECON,ioos:station:SCCF:11:1,2017-11-13T13:00:00Z,26.4679,-82.0631,1.74,24.11,2 
SCCF RECON,ioos:station:SCCF:11:1,2017-11-13T14:00:00Z,26.4679,-82.0631,1.74,24.14,2 
SCCF RECON,ioos:station:SCCF:11:1,2017-11-13T15:00:00Z,26.4679,-82.0631,1.74,24.13,2 
SCCF RECON,ioos:station:SCCF:11:1,2017-11-13T16:00:00Z,26.4679,-82.0631,1.74,24.4,2 
SCCF RECON,ioos:station:SCCF:11:1,2017-11-13T17:00:00Z,26.4679,-82.0631,1.74,24.54,2 
SCCF RECON,ioos:station:SCCF:11:1,2017-11-13T18:00:00Z,26.4679,-82.0631,1.74,24.96,2 
SCCF RECON,ioos:station:SCCF:11:1,2017-11-13T19:00:00Z,26.4679,-82.0631,1.74,25.18,2 
SCCF RECON,ioos:station:SCCF:11:1,2017-11-13T20:00:00Z,26.4679,-82.0631,1.74,25.28,2 
SCCF RECON,ioos:station:SCCF:11:1,2017-11-13T21:00:00Z,26.4679,-82.0631,1.74,25.34,2 
SCCF RECON,ioos:station:SCCF:11:1,2017-11-13T23:00:00Z,26.4679,-82.0631,1.74,24.91,2 
SCCF RECON,ioos:station:SCCF:11:1,2017-11-14T05:00:00Z,26.4679,-82.0631,1.74,24.72,2 
SCCF RECON,ioos:station:SCCF:11:1,2017-11-14T06:00:00Z,26.4679,-82.0631,1.74,24.38,2 
SCCF RECON,ioos:station:SCCF:11:1,2017-11-14T07:00:00Z,26.4679,-82.0631,1.74,24.21,2 
SCCF RECON,ioos:station:SCCF:11:1,2017-11-14T08:00:00Z,26.4679,-82.0631,1.74,24.11,2 
SCCF RECON,ioos:station:SCCF:11:1,2017-11-14T09:00:00Z,26.4679,-82.0631,1.74,23.94,2 
SCCF RECON,ioos:station:SCCF:11:1,2017-11-14T10:00:00Z,26.4679,-82.0631,1.74,23.81,2 
SCCF RECON,ioos:station:SCCF:11:1,2017-11-14T11:00:00Z,26.4679,-82.0631,1.74,23.69,2 
SCCF RECON,ioos:station:SCCF:11:1,2017-11-14T12:00:00Z,26.4679,-82.0631,1.74,23.66,2 
SCCF RECON,ioos:station:SCCF:11:1,2017-11-14T13:00:00Z,26.4679,-82.0631,1.74,23.62,2 
SCCF RECON,ioos:station:SCCF:11:1,2017-11-14T14:00:00Z,26.4679,-82.0631,1.74,23.77,2 
SCCF RECON,ioos:station:SCCF:11:1,2017-11-14T15:00:00Z,26.4679,-82.0631,1.74,23.78,2 
SCCF RECON,ioos:station:SCCF:11:1,2017-11-14T16:00:00Z,26.4679,-82.0631,1.74,23.88,2 
SCCF RECON,ioos:station:SCCF:11:1,2017-11-14T17:00:00Z,26.4679,-82.0631,1.74,23.84,2 
SCCF RECON,ioos:station:SCCF:11:1,2017-11-14T18:00:00Z,26.4679,-82.0631,1.74,24.34,2 
SCCF RECON,ioos:station:SCCF:11:1,2017-11-14T19:00:00Z,26.4679,-82.0631,1.74,24.59,2 
SCCF RECON,ioos:station:SCCF:11:1,2017-11-14T20:00:00Z,26.4679,-82.0631,1.74,24.76,2 
SCCF RECON,ioos:station:SCCF:11:1,2017-11-14T21:00:00Z,26.4679,-82.0631,1.74,25.01,2 
SCCF RECON,ioos:station:SCCF:11:1,2017-11-14T22:00:00Z,26.4679,-82.0631,1.74,24.9,2 
SCCF RECON,ioos:station:SCCF:11:1,2017-11-15T05:00:00Z,26.4679,-82.0631,1.74,24.23,2 
SCCF RECON,ioos:station:SCCF:11:1,2017-11-15T06:00:00Z,26.4679,-82.0631,1.74,24.11,2 
SCCF RECON,ioos:station:SCCF:11:1,2017-11-15T07:00:00Z,26.4679,-82.0631,1.74,23.77,2 
SCCF RECON,ioos:station:SCCF:11:1,2017-11-15T08:00:00Z,26.4679,-82.0631,1.74,23.52,2 
SCCF RECON,ioos:station:SCCF:11:1,2017-11-15T09:00:00Z,26.4679,-82.0631,1.74,23.34,2 
SCCF RECON,ioos:station:SCCF:11:1,2017-11-15T10:00:00Z,26.4679,-82.0631,1.74,23.18,2 
SCCF RECON,ioos:station:SCCF:11:1,2017-11-15T11:00:00Z,26.4679,-82.0631,1.74,22.82,2 
SCCF RECON,ioos:station:SCCF:11:1,2017-11-15T12:00:00Z,26.4679,-82.0631,1.74,22.75,2 
SCCF RECON,ioos:station:SCCF:11:1,2017-11-15T13:00:00Z,26.4679,-82.0631,1.74,22.74,2 
SCCF RECON,ioos:station:SCCF:11:1,2017-11-15T14:00:00Z,26.4679,-82.0631,1.74,22.9,2 
SCCF RECON,ioos:station:SCCF:11:1,2017-11-15T15:00:00Z,26.4679,-82.0631,1.74,23.07,2 
SCCF RECON,ioos:station:SCCF:11:1,2017-11-15T16:00:00Z,26.4679,-82.0631,1.74,23.2,2 
SCCF RECON,ioos:station:SCCF:11:1,2017-11-15T17:00:00Z,26.4679,-82.0631,1.74,23.21,2 
SCCF RECON,ioos:station:SCCF:11:1,2017-11-15T18:00:00Z,26.4679,-82.0631,1.74,23.83,2 
SCCF RECON,ioos:station:SCCF:11:1,2017-11-15T19:00:00Z,26.4679,-82.0631,1.74,23.51,2 
SCCF RECON,ioos:station:SCCF:11:1,2017-11-15T20:00:00Z,26.4679,-82.0631,1.74,23.76,2 
SCCF RECON,ioos:station:SCCF:11:1,2017-11-15T21:00:00Z,26.4679,-82.0631,1.74,24.14,2 
SCCF RECON,ioos:station:SCCF:11:1,2017-11-15T22:00:00Z,26.4679,-82.0631,1.74,24.29,2 
SCCF RECON,ioos:station:SCCF:11:1,2017-11-16T05:00:00Z,26.4679,-82.0631,1.74,23.4,2 
SCCF RECON,ioos:station:SCCF:11:1,2017-11-16T06:00:00Z,26.4679,-82.0631,1.74,23.49,2 
SCCF RECON,ioos:station:SCCF:11:1,2017-11-16T07:00:00Z,26.4679,-82.0631,1.74,23.25,2 
SCCF RECON,ioos:station:SCCF:11:1,2017-11-16T08:00:00Z,26.4679,-82.0631,1.74,23.06,2 
SCCF RECON,ioos:station:SCCF:11:1,2017-11-16T09:00:00Z,26.4679,-82.0631,1.74,22.92,2 
SCCF RECON,ioos:station:SCCF:11:1,2017-11-16T10:00:00Z,26.4679,-82.0631,1.74,22.76,2 
SCCF RECON,ioos:station:SCCF:11:1,2017-11-16T11:00:00Z,26.4679,-82.0631,1.74,22.64,2 